[[{"header":{"parameterUnit":"m.s-1","parameterCategory":1,"la1":30.2991,"la2":30.254,"lo1":-89.0895,"lo2":-89.0444,"dy":0.0017,"dx":0.0017,"nx":28,"ny":28,"refTime":"2025-06-05T03:00:00:Z","depth":0,"parameterNumber":2,"parameterNumberName":"U-component_of_WINDS"},"data":[0,0,0,0,0,0,0,0,0,0,0,0,0,0,0,0,0,0,0,0,0,0,0,0,0,0,0,0,0,0,0,0,0,0,0,0,0,0,0,0,0,0,0,0,0,0,0,0,0,0,0,0,0,0,0,0,0,0,1.1475,1.1476,0,1.1589,1.159,1.1591,1.1613,1.1612,1.1611,1.161,1.1732,1.1736,1.174,0,0,0,0,0,0,0,0,0,0,0,0,0,1.1281,1.1284,1.1475,1.1476,1.1477,1.1588,1.159,1.1591,1.1613,1.1612,1.1611,1.161,1.173,1.1735,1.174,0,0,0,0,0,0,0,0,0,0,0,0,0,1.1377,1.1286,1.1474,1.1502,1.1505,1.1588,1.159,1.1592,1.1614,1.1612,1.1611,1.1609,1.1729,1.1735,1.1741,1.1806,0,0,1.1759,1.1762,0,0,0,0,0,0,0,0,1.1372,1.1384,1.1496,1.15,1.1504,1.1585,1.1566,1.1664,1.1614,1.1573,1.161,1.1609,1.1684,1.1694,1.1719,1.1812,1.1817,1.176,1.1764,1.1766,1.1768,0,0,0,0,0,0,0,1.1365,1.1379,1.152,1.1498,1.1503,1.151,1.1522,1.1585,1.1635,1.1576,1.1578,1.1591,1.1686,1.1713,1.1722,1.1819,1.176,1.1765,1.1769,1.1771,1.1973,1.1974,0,0,0,0,0,0,1.1353,1.1374,1.1516,1.1523,1.1433,1.1514,1.1528,1.1561,1.1634,1.1644,1.1592,1.1591,1.1703,1.1714,1.1726,1.1808,1.1766,1.1772,1.1776,1.1971,1.1973,1.1975,0,0,0,0,0,0,1.1349,1.1365,1.1512,1.1449,1.1468,1.1519,1.1556,1.1563,1.159,1.1646,1.1656,1.1609,1.1702,1.1717,1.1786,1.1813,1.1775,1.178,1.1969,1.1972,1.1974,1.1972,0,0,0,0,0,0,1.1343,1.1364,1.1388,1.1449,1.1471,1.1568,1.1557,1.1567,1.16,1.16,1.1665,1.1674,1.1702,1.1777,1.1792,1.182,1.1785,1.1967,1.197,1.1973,1.197,1.1974,1.1978,0,0,0,0,0,1.1336,1.1383,1.1389,1.1406,1.1502,1.1569,1.1582,1.1612,1.1602,1.1627,1.1664,1.1672,1.1807,1.1783,1.1801,1.1831,1.1965,1.1969,1.1973,1.1968,1.1973,1.1978,0,0,0,0,0,0,1.1325,1.1392,1.1399,1.1467,1.1512,1.1573,1.1606,1.1616,1.1667,1.1665,1.1702,1.1716,1.1783,1.1814,1.1787,1.1899,1.1886,1.1893,1.1876,1.1882,1.1885,1.1877,1.179,0,0,0,0,0,1.133,1.1378,1.1434,1.1489,1.1511,1.1555,1.1585,1.1604,1.1653,1.1673,1.1714,1.1763,1.1816,1.185,1.1903,1.1974,1.199,1.2004,1.2008,1.2011,1.2017,1.2059,1.2066,1.1987,1.1987,1.1987,0,0,1.1342,1.1385,1.1413,1.1488,1.1525,1.1575,1.1571,1.1624,1.1662,1.1681,1.1748,1.178,1.1837,1.1908,1.1941,1.1936,1.2042,1.2016,1.2018,1.2023,1.2064,1.2071,1.2078,1.199,1.1989,1.1989,0,0,1.139,1.1426,1.1476,1.1513,1.1569,1.1598,1.161,1.1669,1.1691,1.1758,1.1774,1.1821,1.1912,1.1952,1.1984,1.2047,1.2058,1.2063,1.2084,1.2124,1.213,1.2136,1.216,1.2168,1.2069,1.2069,1.2069,0,1.1398,1.1472,1.1501,1.1553,1.1587,1.1605,1.1658,1.1693,1.1764,1.1787,1.178,1.1895,1.1934,1.2015,1.203,1.2055,1.2072,1.2056,1.2127,1.2133,1.2139,1.2162,1.217,1.2069,1.2069,1.2069,1.2069,0,1.148,1.1532,1.1566,1.1632,1.167,1.1722,1.176,1.1795,1.181,1.184,1.191,1.1958,1.202,1.2041,1.2057,1.2124,1.212,1.2119,1.2106,1.2146,1.2168,1.2177,1.207,1.207,1.207,1.207,0,0,1.1524,1.1606,1.1618,1.1649,1.1712,1.1753,1.1807,1.1866,1.1896,1.1944,1.1991,1.2068,1.2068,1.2105,1.2126,1.2161,1.2209,1.2157,1.2158,1.2165,1.2288,1.2288,1.2298,1.2216,1.2218,1.2219,1.2283,0,1.158,1.1674,1.1702,1.1782,1.1831,1.185,1.1897,1.1942,1.1971,1.2018,1.2051,1.2105,1.2101,1.2123,1.2158,1.2196,1.2234,1.2191,1.2262,1.2264,1.2248,1.2309,1.231,1.2368,1.2292,1.2294,1.2295,0,1.1657,1.1706,1.179,1.1848,1.187,1.1911,1.1969,1.2013,1.2065,1.2084,1.2125,1.2143,1.2201,1.2185,1.2267,1.2237,1.2268,1.229,1.2293,1.2302,1.2282,1.2321,1.2387,1.2396,1.2309,1.2307,1.2306,0,1.1682,1.1769,1.1831,1.1856,1.1925,1.1954,1.1984,1.2034,1.2069,1.212,1.2143,1.22,1.2232,1.2277,1.2311,1.2295,1.2391,1.2376,1.241,1.2409,1.2429,1.2428,1.2503,1.2447,1.2447,1.2447,1.2447,0,1.1742,1.1793,1.1843,1.1881,1.194,1.1972,1.203,1.2061,1.2106,1.2152,1.2172,1.2215,1.2257,1.2306,1.2333,1.2398,1.2412,1.243,1.2437,1.2429,1.2427,1.245,1.2447,1.245,1.2449,1.2449,1.2448,0,1.178,1.1815,1.1884,1.1943,1.1959,1.2,1.2051,1.209,1.212,1.2178,1.2194,1.2242,1.2301,1.2339,1.2414,1.2432,1.2503,1.2509,1.2485,1.2489,1.252,1.2517,1.2614,1.2628,1.2562,1.2562,1.2563,0,1.1816,1.1856,1.1919,1.195,1.198,1.2031,1.2066,1.21,1.2136,1.2198,1.223,1.229,1.234,1.2433,1.2476,1.2534,1.2542,1.2571,1.2551,1.2541,1.2543,1.2541,1.2546,1.2575,1.2576,1.2576,1.2576,0,1.1877,1.1892,1.1941,1.1996,1.2037,1.2083,1.2128,1.2153,1.2195,1.2235,1.2295,1.2333,1.241,1.247,1.2532,1.2565,1.2579,1.2582,1.2593,1.2586,1.2571,1.2581,1.2496,1.258,1.258,1.258,1.2579,1.2579,1.1916,1.1953,1.2003,1.2057,1.2094,1.2137,1.2176,1.2211,1.2261,1.2325,1.2342,1.2405,1.2457,1.2542,1.2576,1.2627,1.2623,1.2639,1.2643,1.2647,1.2647,1.2562,1.2638,1.2638,1.2638,1.2638,1.2638,0,1.1979,1.2012,1.2061,1.2124,1.2167,1.2174,1.2225,1.2261,1.2315,1.2362,1.241,1.248,1.2538,1.2585,1.2646,1.2677,1.2685,1.2692,1.2691,1.2699,1.2647,1.2631,1.2685,1.2685,1.2685,1.2685,1.2685,1.2685,1.2017,1.2079,1.2101,1.2183,1.2216,1.2276,1.2305,1.2345,1.2382,1.2458,1.2506,1.2536,1.2584,1.2648,1.2702,1.2715,1.2737,1.2742,1.2756,1.2707,1.2702,1.2697,1.2683,1.2747,1.2747,1.2804,1.2805,1.2805]},{"header":{"parameterUnit":"m.s-1","parameterCategory":1,"la1":30.2991,"la2":30.254,"lo1":-89.0895,"lo2":-89.0444,"dy":0.0017,"dx":0.0017,"nx":28,"ny":28,"refTime":"2025-06-05T03:00:00:Z","depth":0,"parameterNumber":3,"parameterNumberName":"V-component_of_WINDS"},"data":[0,0,0,0,0,0,0,0,0,0,0,0,0,0,0,0,0,0,0,0,0,0,0,0,0,0,0,0,0,0,0,0,0,0,0,0,0,0,0,0,0,0,0,0,0,0,0,0,0,0,0,0,0,0,0,0,0,0,0.4386,0.4386,0,0.4401,0.4401,0.4402,0.4398,0.4398,0.4398,0.4397,0.4414,0.4415,0.4416,0,0,0,0,0,0,0,0,0,0,0,0,0,0.4356,0.4356,0.4386,0.4386,0.4387,0.4401,0.4401,0.4402,0.4398,0.4398,0.4397,0.4397,0.4414,0.4415,0.4416,0,0,0,0,0,0,0,0,0,0,0,0,0,0.437,0.4356,0.4386,0.4386,0.4387,0.4401,0.4401,0.4402,0.4398,0.4398,0.4397,0.4397,0.4414,0.4415,0.4416,0.4432,0,0,0.4419,0.442,0,0,0,0,0,0,0,0,0.4369,0.4371,0.4386,0.4386,0.4387,0.4397,0.4397,0.4412,0.4398,0.4394,0.4397,0.4397,0.4409,0.4411,0.4415,0.4432,0.4433,0.442,0.442,0.4421,0.4421,0,0,0,0,0,0,0,0.4368,0.437,0.4392,0.4386,0.4387,0.4386,0.4388,0.44,0.4404,0.4394,0.4394,0.4396,0.4409,0.4413,0.4415,0.4433,0.4419,0.442,0.4421,0.4422,0.4465,0.4466,0,0,0,0,0,0,0.4366,0.4369,0.4392,0.4393,0.4376,0.4387,0.4389,0.4394,0.4404,0.4405,0.4396,0.4396,0.4412,0.4414,0.4416,0.4435,0.4421,0.4422,0.4422,0.4465,0.4465,0.4466,0,0,0,0,0,0,0.4366,0.4368,0.4391,0.4381,0.4384,0.4388,0.4394,0.4395,0.4399,0.4405,0.4406,0.44,0.4412,0.4414,0.4428,0.4435,0.4422,0.4423,0.4464,0.4465,0.4466,0.4473,0,0,0,0,0,0,0.4365,0.4368,0.4374,0.4381,0.4384,0.4403,0.4395,0.4396,0.4401,0.44,0.4409,0.441,0.4411,0.4426,0.4429,0.4436,0.4424,0.4464,0.4464,0.4465,0.4472,0.4474,0.4475,0,0,0,0,0,0.4364,0.4376,0.4374,0.4377,0.4391,0.4403,0.4405,0.4406,0.4401,0.4407,0.4411,0.4409,0.4434,0.4427,0.443,0.4439,0.4463,0.4464,0.4465,0.4471,0.4473,0.4475,0,0,0,0,0,0,0.437,0.4377,0.4375,0.4389,0.4396,0.4402,0.441,0.4408,0.4416,0.4416,0.4417,0.4419,0.4433,0.4437,0.443,0.4454,0.4448,0.445,0.4451,0.4453,0.4455,0.4454,0.4425,0,0,0,0,0,0.4373,0.4381,0.4387,0.4399,0.4402,0.4405,0.441,0.4411,0.4418,0.442,0.4425,0.4432,0.4441,0.4448,0.4456,0.4472,0.4474,0.4479,0.4481,0.4482,0.4484,0.4493,0.4496,0.447,0.447,0.447,0,0,0.4379,0.4384,0.4389,0.44,0.4405,0.4414,0.4408,0.4418,0.4424,0.4422,0.4435,0.4439,0.4447,0.4462,0.4469,0.4466,0.4492,0.4484,0.4485,0.4486,0.4495,0.4497,0.4499,0.447,0.447,0.447,0,0,0.4395,0.4399,0.441,0.4415,0.4422,0.4424,0.4427,0.4434,0.4436,0.4449,0.4447,0.4456,0.4472,0.4477,0.4482,0.45,0.4499,0.4503,0.4512,0.4521,0.4523,0.4525,0.4532,0.4534,0.4505,0.4505,0.4505,0,0.4402,0.4415,0.4416,0.4426,0.4431,0.4428,0.444,0.4444,0.4454,0.4458,0.4454,0.4474,0.4479,0.4496,0.45,0.4504,0.4507,0.4503,0.4522,0.4524,0.4526,0.4533,0.4535,0.4505,0.4505,0.4505,0.4505,0,0.4424,0.4433,0.4441,0.445,0.4456,0.4466,0.4469,0.4475,0.4475,0.4477,0.4491,0.4497,0.4507,0.4511,0.4511,0.4527,0.4525,0.4522,0.4516,0.4529,0.4535,0.4538,0.4506,0.4506,0.4506,0.4506,0,0,0.4445,0.4453,0.4456,0.446,0.4468,0.4475,0.4486,0.4495,0.4501,0.4507,0.4517,0.453,0.4527,0.4533,0.4533,0.4541,0.4555,0.4537,0.4537,0.4541,0.4574,0.4577,0.458,0.4554,0.4555,0.4555,0.4574,0,0.4462,0.448,0.448,0.4497,0.4505,0.4503,0.4512,0.4518,0.4521,0.4529,0.4533,0.4542,0.4537,0.4541,0.4548,0.4552,0.4562,0.4551,0.4564,0.4564,0.4562,0.4583,0.4586,0.4603,0.4576,0.4577,0.4577,0,0.4484,0.4491,0.4508,0.4515,0.4518,0.4527,0.4535,0.4543,0.455,0.4551,0.4557,0.4557,0.4568,0.4561,0.4577,0.4569,0.4574,0.4577,0.4578,0.458,0.4572,0.4586,0.4608,0.4611,0.4581,0.458,0.458,0,0.4497,0.4511,0.4524,0.4527,0.4535,0.4541,0.4544,0.4551,0.4556,0.4564,0.4568,0.4577,0.4582,0.4589,0.4592,0.4586,0.4608,0.4601,0.461,0.461,0.4615,0.4614,0.4639,0.4617,0.4617,0.4617,0.4617,0,0.4517,0.4527,0.453,0.4537,0.455,0.455,0.4562,0.4566,0.4571,0.458,0.4579,0.4587,0.4589,0.4598,0.46,0.4613,0.4615,0.4617,0.4618,0.4618,0.4617,0.4622,0.4621,0.4618,0.4618,0.4618,0.4618,0,0.4534,0.4536,0.4549,0.4555,0.4557,0.4566,0.4571,0.4579,0.4581,0.4592,0.4595,0.4599,0.4609,0.4612,0.4625,0.4626,0.4641,0.4641,0.4639,0.4639,0.4648,0.4648,0.4677,0.4681,0.4656,0.4656,0.4656,0,0.4546,0.4554,0.4561,0.4567,0.457,0.4579,0.4585,0.4586,0.4592,0.46,0.4607,0.4617,0.4625,0.4641,0.4646,0.4656,0.4655,0.4665,0.4657,0.4656,0.4656,0.4656,0.4657,0.4667,0.4667,0.4667,0.4667,0,0.4568,0.4568,0.4576,0.4584,0.4591,0.4598,0.4604,0.4609,0.4611,0.4618,0.4628,0.4634,0.4646,0.4657,0.4666,0.4671,0.467,0.467,0.4672,0.4673,0.4671,0.4673,0.4644,0.4669,0.4669,0.4669,0.4669,0.4669,0.4583,0.459,0.4596,0.4605,0.461,0.4616,0.4624,0.4627,0.4635,0.4645,0.4645,0.4657,0.4664,0.4676,0.4681,0.469,0.4688,0.4691,0.4693,0.4694,0.4695,0.4669,0.4692,0.4692,0.4692,0.4692,0.4692,0,0.4605,0.4609,0.4617,0.4626,0.4633,0.463,0.4637,0.4644,0.4653,0.466,0.4667,0.4679,0.4689,0.4694,0.4704,0.4711,0.471,0.4713,0.4713,0.4714,0.4696,0.4693,0.4713,0.4713,0.4713,0.4713,0.4713,0.4713,0.4617,0.4629,0.4631,0.4645,0.4649,0.466,0.4664,0.467,0.4675,0.4688,0.4696,0.4699,0.4705,0.4716,0.4725,0.4726,0.473,0.4733,0.4734,0.4718,0.4715,0.4713,0.471,0.4734,0.4734,0.4752,0.4752,0.4752]}]]